World > North America > United States > New York > Millwood

Hourly Millwood, NY Regional Weather

Feedback E-mail the Weather

Quick WX

Millwood, NY Weather Maps

°F °C°F °C
Millwood Weather Map
UTC Time: 8/11/2022, 10:40
Your Time:

Millwood, NY Regional Weather

Expires:202208111100;;842406
ASUS41 KALY 111010
RWRALY

NEW YORK STATE HOURLY WEATHER ROUNDUP
NATIONAL WEATHER SERVICE ALBANY NY
600 AM EDT THU AUG 11 2022

NOTE: "FAIR" INDICATES FEW OR NO CLOUDS BELOW 12,000 FEET WITH NO
SIGNIFICANT WEATHER AND/OR NO OBSTRUCTIONS TO VISIBILITY.


NYZ032-033-038>043-046>054-057>066-NYZ062>081-082-084-111100-
EAST

  
CITY           SKY/WX    TMP DP  RH WIND       PRES   REMARKS
ALBANY         MOCLDY    64  59  83 W3        29.94S                  
GLENS FALLS    FOG       59  58  96 S3        29.92F VSB 1/4          
POUGHKEEPSIE   PTCLDY    65  61  87 CALM      29.93R                  
NEWBURGH       MOCLDY    66  61  82 CALM      29.94S                  
MONTGOMERY     PTCLDY    63  60  90 CALM      29.94S                  
WHITE PLAINS   MOCLDY    72  72 100 NE5       29.93R                  
ISLIP          CLOUDY    74  73  97 E5        29.91S                  
NEW YORK CITY  MOCLDY    75  70  84 NE5       29.90S                  
CENTRAL PARK   CLOUDY    76  70  82 CALM      29.94S                  
$$


SKY/WX - Weather  TMP - Temperature  DP - Dew Point  RH - Humidity
WIND - Wind Direction/Speed PRES - Barometric Pressure VSB - Visibility
WCI - Wind Chill Index E13G22 Wind - East Wind 13 mph/Gusts of 22 mph

Trending Headlines

Millwood Radar Loop



Millwood Quick Facts


National Two Day Weather Forecast


E-mail the Millwood Weather Forecast

Voice your opinion or tell us about page issues...